Weather History for KTCS - December, 2012

Change the Weather History Date:

Monday, December 31, 2012

  Actual Average Record
Temperature  
Mean Temperature 37 °F -  
Max Temperature 46 °F 52 °F 62 °F (2011)
Min Temperature 32 °F 27 °F 16 °F (2010)
Degree Days  
Heating Degree Days 28    
Month to date heating degree days  
Since 1 July heating degree days  
Moisture  
Dew Point 23 °F    
Average Humidity 60    
Maximum Humidity 92    
Minimum Humidity 28    
Precipitation  
Precipitation 0.00 in - 0.12 in (2001)
Month to date precipitation 0.55  
Year to date precipitation 3.15  
Sea Level Pressure  
Sea Level Pressure 29.91 in    
Wind  
Wind Speed 11 mph (SW)    
Max Wind Speed 24 mph    
Max Gust Speed 28 mph    
Visibility 10 miles    
Events      
T = Trace of Precipitation, MM = Missing Value Source: NWS Daily Summary

Daily Weather History Graph

Daily Weather History Graph

Search for Another Location

Airport or City:

Trip Planner

Search our weather history database for the weather conditions in past years. The results will help you decide how hot, cold, wet, or windy it might be!

Date:

Astronomy

Dec. 31, 2012 Rise Set
Actual Time 7:12 AM MST 5:12 PM MST
Civil Twilight 6:45 AM MST 5:39 PM MST
Nautical Twilight 6:14 AM MST 6:10 PM MST
Astronomical Twilight 5:44 AM MST 6:40 PM MST
Moon 8:34 PM MST (12/31) 9:05 AM MST (12/31)
Length of Visible Light 10h 54m
Length of Day
9h 59m
Waning Gibbous, 90% of the Moon is Illuminated
Dec 31
Waning Gibbous
Jan 4
Last Quarter
Jan 11
New
Jan 18
First Quarter
Jan 26
Full

Hourly Weather History & Observations

Time (MST) Temp. Windchill Dew Point Humidity Pressure Visibility Wind Dir Wind Speed Gust Speed Precip Events Conditions
12:53 AM 35.1 °F 30.1 °F 28.0 °F 76% 29.78 in 10.0 mi SE 5.8 mph - N/A   Mostly Cloudy
1:02 AM 35.6 °F 29.9 °F 28.4 °F 75% 29.83 in 10.0 mi SSE 6.9 mph - N/A   Mostly Cloudy
1:36 AM 35.6 °F 24.8 °F 32.0 °F 87% 29.84 in 10.0 mi South 19.6 mph 27.6 mph N/A   Overcast
1:53 AM 35.1 °F 23.8 °F 33.1 °F 92% 29.80 in 10.0 mi South 20.7 mph 27.6 mph N/A   Mostly Cloudy
2:09 AM 35.6 °F 29.2 °F 33.8 °F 93% 29.83 in 10.0 mi SSW 8.1 mph - N/A   Overcast
2:16 AM 35.6 °F 27.5 °F 32.0 °F 87% 29.84 in 10.0 mi SSW 11.5 mph - N/A   Overcast
2:53 AM 36.0 °F 27.1 °F 30.0 °F 79% 29.79 in 10.0 mi South 13.8 mph - N/A   Partly Cloudy
3:53 AM 34.0 °F 23.8 °F 27.0 °F 75% 29.80 in 10.0 mi South 16.1 mph 21.9 mph N/A   Clear
4:53 AM 34.0 °F 24.6 °F 27.0 °F 75% 29.81 in 10.0 mi South 13.8 mph - N/A   Clear
5:53 AM 33.1 °F 23.9 °F 26.1 °F 75% 29.85 in 10.0 mi South 12.7 mph - N/A   Clear
6:53 AM 32.0 °F 23.6 °F 27.0 °F 82% 29.88 in 10.0 mi South 10.4 mph - N/A   Clear
7:53 AM 33.1 °F 24.9 °F 28.0 °F 82% 29.91 in 10.0 mi SSW 10.4 mph - N/A   Clear
8:53 AM 34.0 °F 24.6 °F 28.0 °F 79% 29.91 in 10.0 mi South 13.8 mph - N/A   Partly Cloudy
9:53 AM 37.0 °F 29.8 °F 27.0 °F 67% 29.94 in 10.0 mi SSW 10.4 mph - N/A   Partly Cloudy
10:53 AM 39.0 °F 33.4 °F 28.0 °F 65% 29.94 in 10.0 mi South 8.1 mph - N/A   Mostly Cloudy
11:53 AM 41.0 °F 39.0 °F 21.9 °F 47% 29.91 in 10.0 mi ESE 3.5 mph - N/A   Scattered Clouds
12:53 PM 43.0 °F 37.7 °F 21.0 °F 42% 29.89 in 10.0 mi WNW 9.2 mph - N/A   Partly Cloudy
1:53 PM 45.0 °F 38.9 °F 15.1 °F 30% 29.87 in 10.0 mi West 12.7 mph 17.3 mph N/A   Scattered Clouds
2:53 PM 45.0 °F 39.3 °F 14.0 °F 29% 29.87 in 10.0 mi West 11.5 mph 20.7 mph N/A   Clear
3:53 PM 44.1 °F 36.8 °F 16.0 °F 32% 29.90 in 10.0 mi WSW 16.1 mph - N/A   Mostly Cloudy
4:08 PM 42.8 °F 34.8 °F 15.8 °F 34% 29.95 in 10.0 mi West 17.3 mph 24.2 mph N/A   Mostly Cloudy
4:53 PM 41.0 °F 34.3 °F 18.0 °F 40% 29.93 in 10.0 mi WSW 11.5 mph - N/A   Clear
5:53 PM 37.0 °F 30.4 °F 15.1 °F 41% 29.97 in 10.0 mi WSW 9.2 mph - N/A   Clear
6:53 PM 34.0 °F 26.6 °F 15.1 °F 46% 30.00 in 10.0 mi West 9.2 mph - N/A   Clear
7:53 PM 32.0 °F 25.6 °F 17.1 °F 54% 30.02 in 10.0 mi West 6.9 mph - N/A   Clear
8:53 PM 28.9 °F 21.1 °F 16.0 °F 58% 30.05 in 10.0 mi West 8.1 mph - N/A   Clear
9:53 PM 30.9 °F 24.3 °F 17.1 °F 57% 30.06 in 10.0 mi NW 6.9 mph - N/A   Clear
10:53 PM 28.9 °F 21.9 °F 16.0 °F 58% 30.06 in 10.0 mi NW 6.9 mph - N/A   Clear
11:53 PM 30.9 °F 24.3 °F 17.1 °F 57% 30.06 in 10.0 mi NW 6.9 mph - N/A   Clear